Paganella, Italy

8:40 AM CEST on May 24, 2018 (GMT +0200)
Paganella

Weather History for LIVP - March, 2014

Change the Weather History Date:

Sunday, March 2, 2014

  Actual Average Record
Temperature  
Mean Temperature 25 °F -  
Max Temperature 27 °F 30 °F 50 °F (2012)
Min Temperature 23 °F 21 °F 3 °F (1999)
Degree Days  
Heating Degree Days 40    
Moisture  
Dew Point 23 °F    
Average Humidity 89    
Maximum Humidity 100    
Minimum Humidity 74    
Precipitation  
Precipitation 2.72 in 0.05 in - ()
Sea Level Pressure  
Sea Level Pressure 29.38 in    
Wind  
Wind Speed 6 mph ()    
Max Wind Speed 14 mph    
Max Gust Speed -    
Visibility 3.8 miles    
Events Fog , Snow    
Averages and records for this station are not official NWS values.
T = Trace of Precipitation, MM = Missing Value Source: Averaged Metar Reports

Daily Weather History Graph

Daily Weather History Graph

Search for Another Location

Airport or City:

Astronomy

Mar. 02, 2014 Rise Set
Actual Time 6:53 AM CET 6:03 PM CET
Civil Twilight 6:23 AM CET 6:33 PM CET
Nautical Twilight 5:48 AM CET 7:08 PM CET
Astronomical Twilight 5:14 AM CET 7:42 PM CET
Moon 7:08 AM CET (3/2) 7:48 PM CET (3/2)
Length of Visible Light 12h 09m
Length of Day
11h 09m
New Moon, 2% of the Moon is Illuminated
Mar 2
New Moon
Mar 8
First Quarter
Mar 16
Full
Mar 24
Last Quarter
Mar 30
New

Hourly Weather History & Observations

Time (CET) Temp. Windchill Dew Point Humidity Pressure Visibility Wind Dir Wind Speed Gust Speed Precip Events Conditions
12:00 AM 24 °F - 22 °F 89%  in 0 mi North 5.8 mph - - Snow Snow
12:55 AM 24.8 °F 19.1 °F 21.2 °F 86% 29.30 in - North 4.6 mph - N/A Fog Light Freezing Fog
1:00 AM 24 °F - 22 °F 89%  in 0 mi North 4.6 mph - - Snow Snow
1:55 AM 24.8 °F 17.9 °F 21.2 °F 86% 29.30 in - North 5.8 mph - N/A Fog Light Freezing Fog
2:00 AM 24 °F - 22 °F 86%  in 0 mi North 5.8 mph - - Snow Snow
2:55 AM 24.8 °F 16.9 °F 21.2 °F 86% 29.30 in - North 6.9 mph - N/A Fog Light Freezing Fog
3:00 AM 24 °F - 22 °F 86%  in 0 mi North 6.9 mph - - Snow Snow
3:55 AM 24.8 °F 15.3 °F 21.2 °F 86% 29.30 in - North 9.2 mph - N/A Fog Light Freezing Fog
4:00 AM 24 °F - 22 °F 88%  in 0 mi North 9.2 mph - - Snow Heavy Snow
4:55 AM 24.8 °F 15.3 °F 21.2 °F 86% 29.27 in - North 9.2 mph - N/A Fog Light Freezing Fog
5:00 AM 24 °F - 22 °F 89%  in 0 mi North 9.2 mph - - Snow Snow
5:55 AM 23.0 °F 10.6 °F 23.0 °F 100% 29.30 in - North 13.8 mph - N/A Fog Light Freezing Fog
6:00 AM 24 °F - 22 °F 91%  in 0 mi North 13.8 mph - - Snow Light Snow
6:55 AM 23.0 °F 13.1 °F 23.0 °F 100% 29.33 in - North 9.2 mph - N/A Fog Light Freezing Fog
7:00 AM 24 °F - 22 °F 91%  in 0 mi North 9.2 mph - - Snow Heavy Snow
7:55 AM 23.0 °F 14.7 °F 23.0 °F 100% 29.36 in - North 6.9 mph - N/A Fog Light Freezing Fog
8:00 AM 24 °F - 22 °F 91%  in 0 mi North 6.9 mph - - Snow Heavy Snow
8:55 AM 23.0 °F 13.1 °F 23.0 °F 100% 29.36 in - North 9.2 mph - N/A Fog Light Freezing Fog
9:00 AM 24 °F - 22 °F 91%  in 0 mi North 9.2 mph - - Snow Light Snow
9:55 AM 23.0 °F 13.1 °F 23.0 °F 100% 29.39 in - North 9.2 mph - N/A Fog Light Freezing Fog
10:00 AM 24 °F - 22 °F 91%  in 0 mi North 9.2 mph - - Snow Light Snow
10:55 AM 23.0 °F 14.7 °F 23.0 °F 100% 29.39 in 0.2 mi North 6.9 mph - N/A Fog , Snow Light Snow
11:00 AM 24 °F - 22 °F 91%  in 0 mi North 6.9 mph - - Snow Light Snow
11:55 AM 24.8 °F 20.5 °F 23.0 °F 93% 29.42 in 0.2 mi North 3.5 mph - N/A Fog , Snow Light Snow
12:00 PM 24 °F - 23 °F 92%  in 0 mi North 3.5 mph - - Snow Light Snow
12:55 PM 24.8 °F 15.3 °F 21.2 °F 86% 29.42 in 0.4 mi North 9.2 mph - N/A Fog , Snow Light Snow
1:00 PM 24 °F - 22 °F 86%  in 0 mi North 9.2 mph - - Snow Light Snow
1:55 PM 24.8 °F 16.9 °F 23.0 °F 93% 29.42 in 0.6 mi North 6.9 mph - N/A Fog , Snow Light Snow
2:00 PM 25 °F - 22 °F 86%  in 1 mi North 6.9 mph - - Snow Light Snow
2:55 PM 24.8 °F 16.9 °F 23.0 °F 93% 29.42 in 1.9 mi North 6.9 mph - N/A   Scattered Clouds
3:00 PM 25 °F - 22 °F 86%  in 2 mi North 6.9 mph - - Fog Light Fog
3:55 PM 24.8 °F 19.1 °F 23.0 °F 93% 29.42 in 6.2 mi North 4.6 mph - N/A   Scattered Clouds
4:00 PM 26 °F - 23 °F 84%  in 12 mi North 4.6 mph - -   Partly Cloudy
4:55 PM 26.6 °F 21.2 °F 23.0 °F 86% 29.42 in 6.2 mi North 4.6 mph - N/A   Scattered Clouds
5:00 PM 26 °F - 24 °F 87%  in 12 mi North 4.6 mph - -   Partly Cloudy
5:55 PM 26.6 °F 20.0 °F 23.0 °F 86% 29.42 in 6.2 mi North 5.8 mph - N/A   Mostly Cloudy
6:00 PM 26 °F - 24 °F 87%  in 9 mi North 5.8 mph - -   Partly Cloudy
6:55 PM 26.6 °F 19.1 °F 23.0 °F 86% 29.44 in 6.2 mi North 6.9 mph - N/A   Scattered Clouds
7:00 PM 26 °F - 23 °F 84%  in 6 mi North 6.9 mph - -   Partly Cloudy
7:55 PM 26.6 °F 19.1 °F 24.8 °F 93% 29.44 in 6.2 mi North 6.9 mph - N/A   Scattered Clouds
8:00 PM 27 °F - 24 °F 84%  in 6 mi North 6.9 mph - -   Partly Cloudy
8:55 PM 26.6 °F - 23.0 °F 86% 29.44 in 6.2 mi North 2.3 mph - N/A   Scattered Clouds
9:00 PM 27 °F - 24 °F 83%  in 6 mi North 2.3 mph - -   Partly Cloudy
9:55 PM 26.6 °F 19.1 °F 21.2 °F 80% 29.44 in 6.2 mi SSE 6.9 mph - N/A   Scattered Clouds
10:00 PM 27 °F - 22 °F 74%  in 12 mi SSE 6.9 mph - -   Partly Cloudy
10:55 PM 26.6 °F 19.1 °F 23.0 °F 86% 29.44 in 6.2 mi South 6.9 mph - N/A Snow Light Snow
11:00 PM 27 °F - 23 °F 77%  in 19 mi South 6.9 mph - - Snow Light Snow
11:55 PM 26.6 °F 17.5 °F 23.0 °F 86% 29.44 in 6.2 mi South 9.2 mph - N/A Snow Light Snow